Regional Weather Roundup
Issued by NWS

Home | Current Version | Previous Version | Text Only | Print | Product List | Glossary Off
Versions: 1 2 3 4 5 6 7 8 9 10 11 12 13 14 15 16 17 18 19 20 21 22 23 24 25 26 27 28 29 30 31 32 33 34 35 36 37 38 39 40 41 42 43 44 45 46 47 48 49 50

000
ASUS43 KMKX 291611
RWRWI

WISCONSIN REGIONAL WEATHER ROUNDUP
NATIONAL WEATHER SERVICE MILWAUKEE/SULLIVAN WI
1100 AM CDT WED JUL 29 2015

NOTE: "FAIR" INDICATES FEW OR NO CLOUDS BELOW 12,000 FEET WITH NO
SIGNIFICANT WEATHER AND/OR OBSTRUCTIONS TO VISIBILITY.

WIZ001-002-006>008-014>016-023>028-291700-
NORTHWEST WISCONSIN

CITY           SKY/WX    TMP DP  RH WIND       PRES   REMARKS
SUPERIOR ARPT  CLOUDY    68  55  61 W22G29    29.76R
ASHLAND        CLOUDY    72  55  55 SW15G29   29.76S
HAYWARD        MOSUNNY   71  50  47 W17G35    29.83S
SIREN          PTSUNNY   72  51  47 W25G33    29.85S
CUMBERLAND     SUNNY     70  50  49 W21G39    29.87F
RICE LAKE      SUNNY     72  52  48 W22G31    29.90S
CHETEK         SUNNY     74  54  48 W14G26    29.89S
LADYSMITH      SUNNY     74  52  45 W18G29    29.89S
EAU CLAIRE     SUNNY     77  50  38 W21G35    29.91F
MENOMONIE      SUNNY     76  50  39 SW18G31   29.91F
NEW RICHMOND   SUNNY     75  49  39 W21G33    29.91S
OSCEOLA        SUNNY     74  54  48 W25       29.93S
$$

WIZ003>005-009-010-017-018-291700-
NORTH CENTRAL WISCONSIN

CITY           SKY/WX    TMP DP  RH WIND       PRES   REMARKS
MANITOWISH WTR MOSUNNY   71  52  51 W20G35    29.82R
ARBOR VITAE    SUNNY     72  53  51 W16G28    29.83F
WOODRUFF       SUNNY     72  53  51 W16G28    29.83F
RHINELANDER    SUNNY     75  51  43 SW17G30   29.85F
EAGLE RIVER    MOSUNNY   72  49  44 SW18G30   29.82F
LAND O LAKES   SUNNY     72  50  45 SW17G25   29.82S
PHILLIPS       SUNNY     72  53  50 W14G26    29.84S
TOMAHAWK       SUNNY     72  51  47 W13G25    29.86F
MEDFORD        SUNNY     71  52  50 W21G29    29.89F
MERRILL        NOT AVBL
$$

WIZ029-030-035-036-043>047-291700-
CENTRAL WISCONSIN

CITY           SKY/WX    TMP DP  RH WIND       PRES   REMARKS
WAUSAU         SUNNY     76  50  40 W28G36    29.88F
MOSINEE        SUNNY     73  50  43 W23G31    29.92S
MARSHFIELD     SUNNY     76  50  40 W18G28    29.92F
STEVENS POINT  SUNNY     74  50  42 W21G30    29.92S
WAUPACA        SUNNY     81  48  31 W15G24    29.91F HX  80
WAUTOMA        SUNNY     82  49  31 W18G28    29.94S HX  80
WISC RAPIDS    SUNNY     78  48  34 W21G29    29.94F
CAMP DOUGLAS   SUNNY     77  54  44 W18G32    29.96S
$$

WIZ011>013-019>022-031-037>040-048>050-291700-
NORTHEAST WISCONSIN

CITY           SKY/WX    TMP DP  RH WIND       PRES   REMARKS
ANTIGO         SUNNY     74  51  43 W21G30    29.87F
SHAWANO        SUNNY     80  49  34 W14G24    29.87F
OCONTO         MOSUNNY   80  53  39 W17G29    29.85S HX  80
STURGEON BAY   PTSUNNY   79  54  41 W20G25    29.88S
GREEN BAY      MOSUNNY   79  51  37 W20G29    29.88F
MANITOWOC      PTSUNNY   81  50  33 MISG      29.90F HX  80
APPLETON       MOSUNNY   79  46  31 W21G30    29.92S
CLINTONVILLE   SUNNY     79  45  29 W13G24    29.88F
OSHKOSH        MOSUNNY   79  51  37 W13G23    29.92S
$$

WIZ032>034-041-042-053>061-291700-
SOUTHWEST WISCONSIN

CITY           SKY/WX    TMP DP  RH WIND       PRES   REMARKS
LA CROSSE      SUNNY     79  51  37 W15G23    29.97S
SPARTA         SUNNY     77  48  35 W15G22    29.97F
VIROQUA        SUNNY     75  52  43 W15       30.01S
BOSCOBEL       SUNNY     81  55  40 W9G17     30.01R HX  81
PRAIRIE DU CHI SUNNY     80  47  31 W14       30.01S
PLATTEVILLE    SUNNY     77  58  51 W12G18    30.03S
$$

WIZ056-057-062-063-064-067-068-291700-
SOUTH CENTRAL WISCONSIN

CITY           SKY/WX    TMP DP  RH WIND       PRES   REMARKS
REEDSBURG      SUNNY     80  52  37 W13G25    29.98R
BARABOO/DELLS  SUNNY     80  44  28 W13G25    29.97F
LONE ROCK      SUNNY     79  53  40 W13       30.00R
MINERAL POINT  SUNNY     77  52  41 W8G21     30.03S
MADISON        PTSUNNY   78  51  38 NW10G23   29.98S
MIDDLETON      MOSUNNY   80  48  32 W14G25    30.00R
WATERTOWN      PTSUNNY   78  56  47 W10       29.98R
MONROE         MOSUNNY   79  50  36 NW14G21   30.02R
JANESVILLE     MOSUNNY   81  61  50 W10       29.99S HX  81
$$

WIZ051-052-058>065-066-070>072-291700-
SOUTHEAST WISCONSIN

CITY           SKY/WX    TMP DP  RH WIND       PRES   REMARKS
MILWAUKEE      PTSUNNY   81  57  43 NW18G25   29.95R HX  81
WAUKESHA       SUNNY     75  61  60 W15G21    29.98S
MILWAUKEE/TIMM SUNNY     77  57  50 NW16      29.97R
RACINE         PTSUNNY   82  63  52 W10       29.97S HX  83
BURLINGTON     PTSUNNY   81  58  44 NW14G21   29.99R HX  81
KENOSHA        PTSUNNY   79  66  64 W8        29.98R HX  81
FOND DU LAC    MOSUNNY   80  51  36 W16G22    29.94S HX  80
SHEBOYGAN      PTSUNNY   79  55  43 W15       29.93S
WEST BEND      PTSUNNY   77  50  38 W7G21     29.96S
JUNEAU         MOSUNNY   76  51  41 W10G21    29.98R
$$

LSZ147-162-291700-
LAKE SUPERIOR

STATION/POSITION TIME  TEMP    WIND        PRES    WAVE
                       AIR SEA DIR/SP/G            HT/PER
                 (UTC) (F)     (DEG/KT/KT) (MB)    (FT/S)
W MID LAKE BUOY  1550   64 58  240/ 21/ 25 1004.5R   6/ 6
DEVILS ISLAND    1600   68     240/ 33/ 40 1005.6R
PORT WING        1504   70     220/ 15/ 26 1006.8F
SAXON HARBOR     1540   71                 1007.5F
$$

LMZ867-665-643>646-291700-
LAKE MICHIGAN

STATION/POSITION TIME  TEMP    WIND        PRES    WAVE
                       AIR SEA DIR/SP/G            HT/PER
                 (UTC) (F)     (DEG/KT/KT) (MB)    (FT/S)
CHAMBERS ISLAND  1500   76     220/  7/ 15 1010.5F
N MID LAKE BUOY  1550   72 69  240/ 14/ 16 1009.4S   2/ 4
NORTHPORT PIER   1500   76     280/  8/ 13 1010.2F
SISTER BAY       1514   78     270/ 15/ 17   N/A
ALGOMA LAKESHORE 1542          240/  8/ 13   N/A
KEWAUNEE LAKESHO 1500   77     280/  9/ 17 1011.3R
SHEBOYGAN LAKESH 1600   78     280/ 17/ 19 1013.1S
PORT WASHINGTON  1500   79     290/  8/ 12 1014.2R
ATWATER BUOY     1600   73     270/ 12/ 16 1015.6R
MILWAUKEE LAKESH 1500   80     290/ 13/ 18   N/A
KENOSHA   LAKESH 1600   78     270/  9/ 14 1014.6R
$$

TC  - TEMPERATURE IN CELSIUS
VSB - VISIBILITY IN STATUTE MILES
WCI - WIND CHILL INDEX
HX  - HEAT INDEX



USA.gov is the U.S. government's official web portal to all federal, state and local government web resources and services.